sat.trackr.live / text

‹ back to catalog

STARLINK-31516

NORAD 59221 · 2024-046W

PAYLOAD ACTIVE UNKNOWN

§ Identity

Operator
Country
US
Launch date
2024-03-11
Launch site
AFWTR
Launch vehicle
Mass (kg)
RCS (m²)

Purposes: comms

External: N2YO · Heavens-Above · Gunter

§ Orbital elements

Epoch: 2026-09-20T21:42:38.803392Z

Period
93.85 min
Inclination
53.1614°
Eccentricity
0.0001339
Mean motion
15.34392132 rev/d
Perigee alt
461.8 km
Apogee alt
463.6 km
Semi-major
6,840.9 km
B*
6.0299e-6
RAAN
323.9187°
Arg perigee
75.7254°
Mean anomaly
284.3897°
Rev number
14,299

§ Raw data

STARLINK-315161 59221U 24046W   26263.90461578 -.00000173  00000+0  60299-5 0  99962 59221  53.1614 323.9187 0001339  75.7254 284.3897 15.34392132142999

JSON: /api/v1/satellites/59221 · /tle

For live sub-satellite position, see the globe view (requires WebGL).

§ Visibility from observer

Set your observer location to see the next 7 days of passes ≥ 10°. The values pass through the URL so the page stays shareable.

No JS? Fill the form by hand. The geolocation button needs JavaScript.